Los Alamitos, CA

5:15 AM PDT on May 24, 2018 (GMT -0700)
Los Alamitos Army Air Field

Weather History for KSLI - January, 2014

Change the Weather History Date:

Friday, January 31, 2014

  Actual Average Record
Temperature  
Mean Temperature 58 °F -  
Max Temperature 64 °F 67 °F 96 °F (2003)
Min Temperature 53 °F 49 °F 37 °F (2002)
Degree Days  
Heating Degree Days 6    
Growing Degree Days 8 (Base 50)    
Moisture  
Dew Point 45 °F    
Average Humidity 70    
Maximum Humidity 100    
Minimum Humidity 20    
Precipitation  
Precipitation 0.00 in - - ()
Sea Level Pressure  
Sea Level Pressure 29.93 in    
Wind  
Wind Speed 6 mph (WSW)    
Max Wind Speed 13 mph    
Max Gust Speed 17 mph    
Visibility 10 miles    
Events Rain    
Averages and records for this station are not official NWS values.
T = Trace of Precipitation, MM = Missing Value Source: NWS Daily Summary

Daily Weather History Graph

Daily Weather History Graph

Search for Another Location

Airport or City:

Astronomy

Jan. 31, 2014 Rise Set
Actual Time 6:49 AM PST 5:22 PM PST
Civil Twilight 6:23 AM PST 5:48 PM PST
Nautical Twilight 5:53 AM PST 6:18 PM PST
Astronomical Twilight 5:23 AM PST 6:47 PM PST
Moon 7:07 AM PST (1/31) 6:45 PM PST (1/31)
Length of Visible Light 11h 25m
Length of Day
10h 32m
New Moon, 1% of the Moon is Illuminated
Jan 31
New Moon
Feb 6
First Quarter
Feb 14
Full
Feb 22
Last Quarter
Mar 1
New

Hourly Weather History & Observations

Time (PST) Temp. Dew Point Humidity Pressure Visibility Wind Dir Wind Speed Gust Speed Precip Events Conditions
12:58 AM 57.4 °F 56.8 °F 98% 29.91 in 10.0 mi SW 9.2 mph - N/A   Mostly Cloudy
1:58 AM 56.7 °F 56.3 °F 99% 29.91 in 10.0 mi WSW 4.6 mph - N/A   Overcast
2:58 AM 53.8 °F 53.8 °F 100% 29.90 in 10.0 mi SW 2.3 mph - N/A   Partly Cloudy
3:58 AM 56.1 °F 56.1 °F 100% 29.90 in 10.0 mi WSW 6.9 mph - N/A   Overcast
4:18 AM 55.4 °F 55.4 °F 100% 29.89 in 10.0 mi WNW 3.5 mph - N/A   Overcast
4:23 AM 55.4 °F 55.4 °F 100% 29.89 in 10.0 mi West 2.3 mph - N/A   Overcast
4:28 AM 55.4 °F 55.4 °F 100% 29.89 in 10.0 mi West 2.3 mph - N/A   Overcast
4:37 AM 55.4 °F 55.4 °F 100% 29.89 in 10.0 mi West 2.3 mph - N/A Rain Light Rain
4:47 AM 55.4 °F 55.4 °F 100% 29.90 in 9.0 mi West 3.5 mph - N/A Rain Light Rain
4:58 AM 55.6 °F 55.6 °F 100% 29.91 in 9.0 mi WSW 3.5 mph - 0.00 in   Light Drizzle
4:59 AM 55.4 °F 55.4 °F 100% 29.91 in 10.0 mi West 3.5 mph - N/A   Overcast
5:49 AM 55.4 °F 53.6 °F 94% 29.92 in 10.0 mi West 5.8 mph - N/A   Mostly Cloudy
5:58 AM 55.2 °F 53.4 °F 94% 29.93 in 10.0 mi WSW 4.6 mph - 0.00 in   Scattered Clouds
6:58 AM 55.0 °F 51.3 °F 87% 29.95 in 10.0 mi West 5.8 mph - N/A   Overcast
7:58 AM 55.8 °F 50.5 °F 83% 29.96 in 10.0 mi WSW 9.2 mph - N/A   Overcast
8:58 AM 57.7 °F 46.9 °F 67% 29.98 in 10.0 mi WSW 8.1 mph - N/A   Overcast
9:58 AM 60.1 °F 43.0 °F 53% 29.98 in 10.0 mi SW 10.4 mph - N/A   Overcast
10:58 AM 61.7 °F 41.0 °F 47% 29.98 in 10.0 mi WNW 8.1 mph - N/A   Overcast
11:58 AM 64.4 °F 40.6 °F 42% 29.95 in 10.0 mi West 8.1 mph - N/A   Overcast
12:58 PM 62.6 °F 38.8 °F 42% 29.93 in 10.0 mi West 12.7 mph 17.3 mph N/A   Overcast
1:58 PM 63.1 °F 40.6 °F 44% 29.91 in 10.0 mi WSW 8.1 mph - N/A   Mostly Cloudy
2:58 PM 63.3 °F 40.1 °F 43% 29.91 in 10.0 mi WSW 10.4 mph - N/A   Mostly Cloudy
3:58 PM 62.6 °F 39.9 °F 43% 29.92 in 10.0 mi West 8.1 mph - N/A   Mostly Cloudy
4:58 PM 60.4 °F 38.1 °F 44% 29.92 in 10.0 mi SW 10.4 mph - N/A   Mostly Cloudy
5:58 PM 58.8 °F 38.8 °F 47% 29.92 in 10.0 mi WSW 12.7 mph - N/A   Mostly Cloudy
6:55 PM 59.5 °F 23.2 °F 25% 29.94 in 10.0 mi West 10.4 mph - N/A   Mostly Cloudy
7:55 PM 58.8 °F 21.4 °F 24% 29.94 in 10.0 mi West 10.4 mph - N/A   Mostly Cloudy
8:55 PM 56.8 °F 16.3 °F 20% 29.95 in 10.0 mi West 3.5 mph - N/A   Partly Cloudy
9:55 PM 56.1 °F 16.3 °F 21% 29.95 in 10.0 mi West 5.8 mph - N/A   Partly Cloudy
10:55 PM 57.6 °F 14.5 °F 18% 29.95 in 10.0 mi NW 13.8 mph 19.6 mph N/A   Clear
11:55 PM 56.1 °F 16.9 °F 21% 29.96 in 10.0 mi NW 8.1 mph - N/A   Clear